STARLINK-37203, 68388

Orbit data source: Space-Track

STARLINK-37203, 68388 is a payload satellite owned by SpaceX/Seattle (US) in SSO that was launched on Thu, 26 Mar 2026 UTC via an FALCON 9 launch vehicle from the Air Force Western Test Range (AFWTR). Payload-class satellites include a variety of spacecraft equipped with specific instruments for various scientific and technological missions. These include communications satellites like Starlink; space stations such as the ISS; scientific satellites like the Hubble; Earth observation satellites from companies like Planet Labs, Umbra, and HawkEye 360; GPS; miniature CubeSats for education and research; and military/defense satellites.

Loading next visibility...
Identifier
68388, 2026-063J
Orbit
SSO
Country
Flag of USUS
Related business
Manufacturer
SpaceX/Seattle
Mission
Operational spacecraft
Bus & Motor
STARLINK V2MO, Unknown motor
Mass
575 kg wet, ~530 kg dry
Launch date (UTC)
2026-03-26 (3 months ago)
Launch vehicle
FALCON 9
Launch site
Air Force Western Test Range (AFWTR)
Object type
Payload
Rocket body
Debris
Shape & HBR
Unknown shape, 17.7 m
Radar Cross Section
Large (>1 m²)

Expand to show TLE details & history
Last TLE update: 7 hours ago

TLE from 7 hours ago
0 STARLINK-37203
1 68388U 26063J   26165.82864443  .00021438  00000-0  66455-3 0  9996
2 68388  97.2857 308.1230 0000777  82.6646 277.4685 15.33442311 12787
Epoch: 2026-06-14T19:53Z
TLE epoch observation values (Epoch: 2026-06-14T19:53:14.878Z)
Latitude
-0.00004°
Longitude
106.68723°
Altitude
468.594 km
Speed
7.632 km/s
True Right ascension
20h 32m 29s
True Declination
0° 00' 00"
Sunlit
Object was in full shadow at epoch
Visualization orbit readout
Latitude
Unknown
Longitude
Unknown
Altitude
Unknown
Speed
Unknown
Apparent Right ascension
Unknown
Apparent Declination
Unknown
Sunlit
N/A
Visualization observer readout
Local Sidereal Time
12:57:38
Azimuth
Unknown
Elevation
Unknown
Doppler factor
Unknown
Orbital elements
Apogee altitude
463.025 km
Perigee altitude
461.962 km
Semi-major axis
6,840.631 km
Eccentricity
0.00008
Inclination
97.2857°
RAAN
308.123°
Arg. of periapsis
82.6646°
True anomaly
277.45967°
Mean anomaly
277.4685°
Eccentric anomaly
277.46409°
Mean motion
3.83618 °/min
Orbital period
93.84 mins
BSTAR
0.00066455
Loading maneuver chart data...
Computing Atmospheric mass density...
Loading historical data...
Loading historical data...
Loading historical data...
Loading historical data...
Loading historical data...
Loading historical data...
Loading historical data...

Documentation

Showing up to 5 results
|